[[{"header":{"parameterUnit":"m.s-1","parameterCategory":1,"la1":30.2992,"la2":30.254,"lo1":-89.0895,"lo2":-89.0443,"dy":0.0025,"dx":0.0025,"nx":19,"ny":19,"refTime":"2026-05-02T09:00:00:Z","depth":0,"parameterNumber":2,"parameterNumberName":"U-component_of_WINDS"},"data":[0,0,0,-1.9752,-1.9753,-1.9804,-1.9804,-1.9886,-1.9887,0,0,0,0,0,0,0,0,0,0,0,-1.9745,-1.9746,-1.9751,-1.9753,-1.9804,-1.9804,-1.9886,-1.9887,0,0,0,0,0,0,0,0,0,0,0,-1.9745,-1.9746,-1.9747,-1.9753,-1.9804,-1.9804,-1.9886,-1.9841,0,0,0,0,0,0,0,0,0,0,-1.9789,-1.9792,-1.9746,-1.9747,-1.9754,-1.9804,-1.9804,-1.9839,-1.9844,-1.987,0,-1.9894,0,-1.9892,-1.9893,-1.9894,0,0,0,-1.9746,-1.9788,-1.9793,-1.9747,-1.9754,-1.9804,-1.9779,-1.9842,-1.9848,-1.9877,-1.9895,-1.9897,-1.9893,-1.9894,-1.9894,-2.0063,-2.0064,0,0,-1.9744,-1.976,-1.9789,-1.9798,-1.979,-1.9777,-1.9781,-1.9845,-1.9866,-1.9895,-1.9899,-1.9894,-1.9895,-1.9895,-2.0062,-2.0063,0,0,0,-1.974,-1.9758,-1.9762,-1.9795,-1.9803,-1.9779,-1.9783,-1.9863,-1.9863,-1.99,-1.9895,-1.9895,-1.9896,-2.006,-2.0062,-2.0134,0,0,0,-1.9738,-1.9756,-1.9761,-1.9771,-1.9802,-1.9833,-1.98,-1.9859,-1.9865,-1.9895,-1.9895,-1.9897,-2.0059,-2.0061,-2.0129,-2.0165,0,0,0,-1.9739,-1.9756,-1.9766,-1.9772,-1.9794,-1.9832,-1.9835,-1.986,-1.9863,-1.9894,-1.9897,-2.0058,-2.0061,-2.0125,-2.0158,-2.0216,0,0,0,-1.9745,-1.9828,-1.9768,-1.9859,-1.9794,-1.9875,-1.9835,-1.9894,-1.9928,-1.9896,-2.0059,-2.0062,-2.0123,-2.0154,-2.0212,-2.027,-2.0294,0,0,-1.9859,-1.9842,-1.9895,-1.9842,-1.9938,-1.9866,-1.9973,-1.9989,-1.9976,-2.0035,-2.0039,-2.013,-2.0158,-2.0215,-2.0423,-2.0443,0,0,0,-1.9936,-1.9974,-1.9996,-2.003,-2.0044,-2.006,-2.0058,-2.0064,-2.0113,-2.0009,-2.0165,-2.0181,-2.0214,-2.0241,-2.0258,-2.0286,-2.0074,-2.0074,-2.0074,-2.0122,-2.0102,-2.0188,-2.0175,-2.0208,-2.0206,-2.0231,-2.0239,-2.0209,-2.0246,-2.0264,-2.0393,-2.0425,-2.0437,-2.0467,-2.0291,-2.0291,-2.0291,-2.0291,-2.0289,-2.0341,-2.0299,-2.0368,-2.0347,-2.0404,-2.0406,-2.0382,-2.0434,-2.0377,-2.0405,-2.0347,-2.046,-2.0485,-2.0297,-2.0296,-2.0295,-2.0294,-2.0294,-2.0411,-2.0432,-2.0438,-2.0486,-2.0525,-2.0508,-2.056,-2.0538,-2.0518,-2.0546,-2.0564,-2.0563,-2.0561,-2.0555,-2.0556,-2.0556,-2.0557,-2.0557,-2.0557,-2.0536,-2.054,-2.0586,-2.0609,-2.0629,-2.0652,-2.065,-2.0669,-2.0685,-2.0665,-2.0665,-2.0633,-2.0473,-2.0435,-2.0564,-2.0563,-2.0562,-2.0561,-2.0561,-2.0717,-2.0673,-2.0745,-2.0765,-2.079,-2.0832,-2.0803,-2.0844,-2.0856,-2.0883,-2.0844,-2.0729,-2.071,-2.0697,-2.0666,-2.0846,-2.0846,-2.0846,-2.0846,-2.0822,-2.081,-2.088,-2.0913,-2.0943,-2.0924,-2.1008,-2.1008,-2.1001,-2.1008,-2.0978,-2.0934,-2.0921,-2.0911,-2.0892,-2.0863,-2.109,-2.109,-2.109,-2.0934,-2.0924,-2.0999,-2.0992,-2.101,-2.1027,-2.1106,-2.1148,-2.113,-2.11,-2.1014,-2.1004,-2.0932,-2.0908,-2.0879,-2.0851,-2.0796,0,0]},{"header":{"parameterUnit":"m.s-1","parameterCategory":1,"la1":30.2992,"la2":30.254,"lo1":-89.0895,"lo2":-89.0443,"dy":0.0025,"dx":0.0025,"nx":19,"ny":19,"refTime":"2026-05-02T09:00:00:Z","depth":0,"parameterNumber":3,"parameterNumberName":"V-component_of_WINDS"},"data":[0,0,0,-1.8153,-1.8154,-1.8209,-1.8209,-1.8291,-1.8292,0,0,0,0,0,0,0,0,0,0,0,-1.8144,-1.8144,-1.8153,-1.8154,-1.8209,-1.8209,-1.8291,-1.8292,0,0,0,0,0,0,0,0,0,0,0,-1.8143,-1.8144,-1.8145,-1.8154,-1.8209,-1.8209,-1.8291,-1.8245,0,0,0,0,0,0,0,0,0,0,-1.819,-1.8189,-1.8144,-1.8145,-1.8155,-1.8209,-1.8209,-1.8243,-1.8248,-1.8272,0,-1.8294,0,-1.8294,-1.8298,-1.8299,0,0,0,-1.8149,-1.8184,-1.8193,-1.8145,-1.8155,-1.8209,-1.8183,-1.8246,-1.8252,-1.8279,-1.8295,-1.8298,-1.8296,-1.8299,-1.8299,-1.8453,-1.8454,0,0,-1.8146,-1.8157,-1.8189,-1.8197,-1.8189,-1.8181,-1.8184,-1.8249,-1.8268,-1.8295,-1.83,-1.8297,-1.83,-1.83,-1.8452,-1.8453,0,0,0,-1.8141,-1.8156,-1.8162,-1.8194,-1.8203,-1.8183,-1.8187,-1.8265,-1.8266,-1.83,-1.8298,-1.83,-1.8301,-1.8451,-1.8452,-1.8513,0,0,0,-1.8139,-1.8153,-1.8161,-1.8169,-1.8202,-1.8235,-1.8202,-1.8262,-1.8269,-1.8298,-1.83,-1.8302,-1.845,-1.8452,-1.8509,-1.8541,0,0,0,-1.8138,-1.8152,-1.8163,-1.8169,-1.8193,-1.8233,-1.8238,-1.8263,-1.8268,-1.8299,-1.8302,-1.8449,-1.8451,-1.8506,-1.8535,-1.8586,0,0,0,-1.814,-1.8215,-1.8164,-1.8247,-1.8193,-1.827,-1.8237,-1.8294,-1.8328,-1.8301,-1.845,-1.8452,-1.8505,-1.8531,-1.8582,-1.8633,-1.8655,0,0,-1.8241,-1.8228,-1.8275,-1.8231,-1.8321,-1.826,-1.8359,-1.8378,-1.837,-1.8426,-1.8429,-1.8511,-1.8534,-1.8585,-1.8768,-1.8785,0,0,0,-1.8311,-1.8346,-1.8367,-1.84,-1.8417,-1.8434,-1.8437,-1.8445,-1.8492,-1.8401,-1.8541,-1.8555,-1.8585,-1.8609,-1.8623,-1.8649,-1.8463,-1.8463,-1.8463,-1.8473,-1.8459,-1.8537,-1.853,-1.8562,-1.8565,-1.859,-1.86,-1.8576,-1.8609,-1.8627,-1.8739,-1.8768,-1.8779,-1.8805,-1.865,-1.8651,-1.8651,-1.8651,-1.8622,-1.867,-1.8636,-1.87,-1.8685,-1.8739,-1.8744,-1.8725,-1.8774,-1.8725,-1.875,-1.87,-1.8798,-1.8821,-1.8655,-1.8655,-1.8654,-1.8654,-1.8653,-1.8728,-1.8749,-1.8756,-1.8803,-1.884,-1.8829,-1.8878,-1.8861,-1.8846,-1.8871,-1.8889,-1.8888,-1.8887,-1.888,-1.888,-1.8881,-1.8881,-1.8881,-1.8882,-1.8837,-1.8843,-1.8886,-1.891,-1.893,-1.8953,-1.8956,-1.8975,-1.8992,-1.8976,-1.8976,-1.895,-1.8809,-1.8776,-1.8888,-1.8887,-1.8886,-1.8885,-1.8885,-1.8997,-1.8958,-1.9025,-1.9045,-1.9072,-1.9112,-1.9089,-1.9129,-1.9142,-1.9167,-1.9134,-1.9032,-1.9017,-1.9005,-1.8978,-1.9136,-1.9136,-1.9136,-1.9136,-1.9089,-1.9079,-1.9144,-1.9177,-1.9207,-1.9193,-1.9271,-1.9274,-1.9271,-1.9278,-1.9252,-1.9213,-1.9202,-1.9194,-1.9178,-1.9152,-1.9351,-1.9351,-1.9351,-1.9188,-1.9181,-1.925,-1.9246,-1.9266,-1.9285,-1.9357,-1.9397,-1.9385,-1.936,-1.9284,-1.9275,-1.9212,-1.9192,-1.9168,-1.9143,-1.9095,0,0]}]]